Weather Roundup
Issued by NWS

Home | Current Version | Previous Version | Text Only | Print | Product List | Glossary On
Versions: 1 2 3 4 5 6 7 8 9 10 11 12 13 14 15 16 17 18 19 20 21 22 23 24 25 26 27 28 29 30 31 32 33 34 35 36 37 38 39 40 41 42 43 44 45 46 47 48 49 50
000
NZUS93 KARX 280159
HRRWXR

CURRENT HOURLY OBSERVATIONS ACROSS
MUCH OF THE UPPER MISSISSIPPI VALLEY
NATIONAL WEATHER SERVICE LA CROSSE WI
800 PM CST SAT DEC 27 2014


...SOUTHEAST MINNESOTA...


CITY           SKY/WX    TMP DP  RH WIND       PRES   REMARKS
ROCHESTER      CLEAR      8   3  80 W10       30.11F WCI  -6
ROCHESTER/MAYO FAIR      13   7  75 SW7       30.12S WCI   3
WINONA         CLEAR     19  14  79 W7        30.15S WCI  10
AUSTIN         FAIR       9   5  85 SW5       30.13S WCI   0
ALBERT LEA     CLEAR     12   9  85 SW5       30.13F WCI   4
DODGE CENTER   PTCLDY     9   3  78 W9        30.10F WCI  -5
PRESTON        CLEAR     10   5  82 W8        30.13S WCI  -3
OWATONNA       CLEAR      9   3  78 S7        30.12S WCI  -3
FARIBAULT      CLEAR      9   5  85 S6        30.13S WCI  -1
$$

...ELSEWHERE IN MINNESOTA...


CITY           SKY/WX    TMP DP  RH WIND       PRES   REMARKS
MINNEAPOLIS    PTCLDY    13   6  74 SW7       30.12F WCI   3
INTNL FALLS    LGT SNOW  12   7  80 W7        29.97R WCI   1
DULUTH         MOCLDY    21   7  54 W10       29.96S WCI  10
RED WING       CLEAR     12   7  79 CALM      30.13R
REDWOOD FALLS  PTCLDY    13   7  77 W13       30.12S WCI  -2
MANKATO        FAIR      12   5  73 SW9       30.13S WCI   0
WORTHINGTON    CLEAR     10 -33  12 W7        30.13S WCI   0
FAIRMONT       CLEAR     14   7  73 W15       30.13S WCI  -1
$$

...SOUTHWEST WISCONSIN...


CITY           SKY/WX    TMP DP  RH WIND       PRES   REMARKS
LA CROSSE      CLEAR     22  15  75 SW10      30.14S WCI  11
PRAIRIE DU CHI CLOUDY    23  16  75 NW13      30.16S WCI  11
BOSCOBEL       CLOUDY    25  18  74 W9        30.15S WCI  15
LONE ROCK      NOT AVBL
PLATTEVILLE    CLOUDY    26  22  85 W6G20     30.14R WCI  20
FORT MC COY    PTCLDY    23  18  82 W3        30.12S
VIROQUA        CLOUDY    23  22  96 W10       30.10S WCI  12
WIS DELLS      NOT AVBL
$$

...ELSEWHERE IN WISCONSIN...


CITY           SKY/WX    TMP DP  RH WIND       PRES   REMARKS
MILWAUKEE      MOCLDY    34  24  67 NW13      30.06F WCI  25
MADISON        CLOUDY    30  23  75 VRB5      30.09R WCI  25
GREEN BAY      CLOUDY    33  27  78 W15       30.02S WCI  23
EAU CLAIRE     NOT AVBL
BLACK RVR FLS  FAIR      21  18  87 SW5       30.11S WCI  14
MEDFORD        CLEAR     16  13  87 W7        30.01S WCI   7
WAUSAU         CLOUDY    22  16  78 W14       30.02R WCI   9
WIS RAPIDS     PTCLDY    22  15  75 W7        30.09R WCI  13
MARSHFIELD     CLEAR     18  14  84 W6        30.05S WCI  10
RICE LAKE      PTCLDY    15  12  88 CALM      30.06S
$$

...NORTHEAST IOWA...


CITY           SKY/WX    TMP DP  RH WIND       PRES   REMARKS
DECORAH        CLEAR     18  12  79 W10       30.14S WCI   6
MASON CITY     CLEAR     15  10  80 W13       30.16F WCI   1
CHARLES CITY   CLEAR     16  10  79 W7        30.17F WCI   6
OELWEIN        CLEAR     19  12  73 W15       30.17R WCI   5
$$

...ELSEWHERE IN IOWA...


CITY           SKY/WX    TMP DP  RH WIND       PRES   REMARKS
DES MOINES     PTCLDY    23  18  81 CALM      30.22S
IOWA CITY      PTCLDY    26  21  81 W12       30.21S WCI  16
FORT DODGE     CLEAR     12   7  79 W6        30.20F WCI   3
$$

...NORTHERN ILLINOIS...


CITY           SKY/WX    TMP DP  RH WIND       PRES   REMARKS
CHICAGO-OHARE  CLOUDY    34  25  69 W12       30.09R WCI  25
CHICAGO-MIDWAY CLOUDY    36  26  67 W12       30.10R WCI  28
MOLINE         CLOUDY    29  22  75 NW17      30.18R WCI  17
ROCKFORD       MOCLDY    31  24  75 NW7       30.13R WCI  24
PEORIA         CLOUDY    34  24  67 W7        30.18R WCI  28
$$

NOTE: "FAIR" INDICATES FEW OR NO CLOUDS BELOW 12,000 FEET WITH NO
SIGNIFICANT WEATHER AND/OR OBSTRUCTIONS TO VISIBILITY. WIND
SPEEDS ARE IN MILES-PER-HOUR.



USA.gov is the U.S. government's official web portal to all federal, state and local government web resources and services.